Kars, Turkey

11:51 AM +03 on January 23, 2018 (GMT +0300)
Kars

Weather History for LTCF - December, 2013

Change the Weather History Date:

Monday, December 9, 2013

  Actual Average Record
Temperature  
Mean Temperature 9 °F -  
Max Temperature 20 °F 27 °F - ()
Min Temperature -2 °F 12 °F - ()
Degree Days  
Heating Degree Days 56    
Moisture  
Dew Point 1 °F    
Average Humidity 70    
Maximum Humidity 95    
Minimum Humidity 48    
Precipitation  
Precipitation 0.00 in 0.03 in - ()
Sea Level Pressure  
Sea Level Pressure 29.95 in    
Wind  
Wind Speed 4 mph ()    
Max Wind Speed 17 mph    
Max Gust Speed 29 mph    
Visibility 6.1 miles    
Events      
T = Trace of Precipitation, MM = Missing Value Source: Averaged Metar Reports

Daily Weather History Graph

Daily Weather History Graph

Search for Another Location

Airport or City:

Trip Planner

Search our weather history database for the weather conditions in past years. The results will help you decide how hot, cold, wet, or windy it might be!

Date:

Astronomy

Dec. 09, 2013 Rise Set
Actual Time 6:19 AM EET 3:40 PM EET
Civil Twilight 5:48 AM EET 4:11 PM EET
Nautical Twilight 5:14 AM EET 4:45 PM EET
Astronomical Twilight 4:41 AM EET 5:18 PM EET
Moon 10:59 AM EET (12/9) 11:12 PM EET (12/9)
Length of Visible Light 10h 22m
Length of Day
9h 21m
Waxing Crescent, 47% of the Moon is Illuminated
Dec 9
Waxing Crescent
Dec 9
First Quarter
Dec 17
Full
Dec 25
Last Quarter
Jan 1
New

Hourly Weather History & Observations

Time (EET) Temp. Windchill Dew Point Humidity Pressure Visibility Wind Dir Wind Speed Gust Speed Precip Events Conditions
12:50 AM 8.6 °F -2.6 °F 3.2 °F 79% 29.89 in 6.2 mi WSW 6.9 mph - N/A   Mostly Cloudy
1:50 AM 8.6 °F -2.6 °F 3.2 °F 79% 29.89 in 6.2 mi West 6.9 mph - N/A   Mostly Cloudy
2:00 AM 8 °F - 5 °F 80%  in 6 mi West 6.9 mph - -   Mostly Cloudy
2:50 AM 5.0 °F - -0.4 °F 78% 29.89 in 6.2 mi SW 1.2 mph - N/A   Mostly Cloudy
3:50 AM 3.2 °F -10.3 °F -2.2 °F 78% 29.89 in 6.2 mi WSW 8.1 mph - N/A   Mostly Cloudy
4:50 AM 3.2 °F - -0.4 °F 85% 29.92 in 6.2 mi Calm Calm - N/A   Mostly Cloudy
5:00 AM 3 °F - 2 °F 95%  in 6 mi Calm Calm - -   Mostly Cloudy
5:50 AM 3.2 °F -6.2 °F -2.2 °F 78% 29.92 in 6.2 mi NNW 4.6 mph - N/A   Scattered Clouds
6:50 AM 1.4 °F -8.3 °F -4.0 °F 78% 29.92 in 6.2 mi South 4.6 mph - N/A   Scattered Clouds
7:50 AM 5.0 °F - -2.2 °F 72% 29.95 in 6.2 mi Calm Calm - N/A   Mostly Cloudy
8:00 AM 5 °F - 1 °F 76%  in 6 mi Calm Calm - -   Mostly Cloudy
8:50 AM 10.4 °F - 3.2 °F 73% 29.95 in 6.2 mi Calm Calm - N/A   Mostly Cloudy
9:50 AM 14.0 °F - 5.0 °F 67% 29.95 in 6.2 mi Variable 1.2 mph - N/A   Mostly Cloudy
10:50 AM 17.6 °F - 6.8 °F 63% 29.92 in 6.2 mi Calm Calm - N/A   Mostly Cloudy
11:00 AM 17 °F - 8 °F 54%  in 6 mi Calm Calm - -   Partly Cloudy
11:50 AM 19.4 °F 4.5 °F 3.2 °F 49% 29.92 in 6.2 mi West 17.3 mph 28.8 mph N/A   Mostly Cloudy
12:50 PM 19.4 °F 7.2 °F 3.2 °F 49% 29.92 in 6.2 mi NW 11.5 mph 26.5 mph N/A   Mostly Cloudy
1:50 PM 17.6 °F 7.3 °F 5.0 °F 58% 29.95 in 6.2 mi SE 8.1 mph - N/A   Mostly Cloudy
2:00 PM 17 °F - 6 °F 48%  in 6 mi SE 8.1 mph - -   Partly Cloudy
2:50 PM 17.6 °F 10.7 °F 5.0 °F 58% 29.95 in 6.2 mi ENE 4.6 mph - N/A   Mostly Cloudy
3:50 PM 15.8 °F - 5.0 °F 62% 29.98 in 6.2 mi Variable 2.3 mph - N/A   Scattered Clouds
4:50 PM 8.6 °F 2.0 °F -0.4 °F 67% 29.98 in 6.2 mi SSW 3.5 mph - N/A   Partly Cloudy
5:00 PM 9 °F - 3 °F 65%  in 6 mi SSW 3.5 mph - -   Scattered Clouds
5:50 PM 5.0 °F -10.8 °F -2.2 °F 72% 29.98 in - SSW 11.5 mph - N/A   Clear
6:50 PM 5.0 °F -5.6 °F -2.2 °F 72% 30.01 in - South 5.8 mph - N/A   Clear
7:50 PM 3.2 °F -6.2 °F -2.2 °F 78% 30.01 in - SW 4.6 mph - N/A   Clear
8:00 PM 4 °F - -1 °F 71%  in 6 mi SW 4.6 mph - -  
8:50 PM -0.4 °F -8.3 °F -5.8 °F 78% 29.98 in - West 3.5 mph - N/A   Clear
9:50 PM -2.2 °F - -5.8 °F 85% 29.98 in - Calm Calm - N/A   Clear
10:50 PM 1.4 °F -13.5 °F -5.8 °F 72% 29.98 in - WSW 9.2 mph - N/A   Clear
11:00 PM 2 °F - -3 °F 68%  in 6 mi WSW 9.2 mph - -  
11:50 PM 3.2 °F -13.1 °F -5.8 °F 66% 29.98 in - WSW 11.5 mph - N/A   Clear